Location: Stuart
(27.1975°N, 80.2528°W)
Time: 11:38:00
(UTC-04:00)

N. Korean satellite - Visible Passes

Search period start: 01 April 2020 00:00
Search period end: 11 April 2020 00:00
Orbit: 454 x 507 km, 97.2° (Epoch: 31 March)

Date Brightness Start Highest point End Pass type
(mag) Time Alt. Az. Time Alt. Az. Time Alt. Az.
01 Apr 9.9 06:03:32 10° ENE 06:04:41 11° E 06:05:49 10° ESE visible
03 Apr 7.5 06:43:35 10° NNE 06:46:55 51° E 06:50:14 10° S visible
04 Apr 9.4 06:18:41 10° NE 06:21:16 20° E 06:23:51 10° SSE visible
07 Apr 8.3 06:34:38 10° NNE 06:37:49 36° E 06:40:59 10° SSE visible
08 Apr 9.6 06:10:06 10° ENE 06:12:08 15° E 06:14:11 10° SE visible
